Wind_Speed
21 20 19 18 17 17 17 17 17 16 16 15 15 15 15 16 16 16 16 17 17 17 17 17 18 18 18 18 19 20 20 21 21 22 22 22 22 22 22 23 23 23 23 23 23 23 23 22 22 22 22 22 22 22 21 21 21 21 21 21 21 21 21 20 20 20 20 21 21 21 20 21 21 21 22 22 23 22 21 21 21 21 21 21 22 22
19 18 17 16 15 14 15 15 15 14 14 14 15 15 15 15 15 15 16 16 16 16 17 17 17 18 18 18 19 19 20 20 20 20 20 20 20 20 21 21 21 22 22 22 22 22 22 22 22 22 22 22 22 21 21 21 21 21 21 21 21 21 21 21 21 21 21 22 22 22 22 22 22 22 23 23 23 23 22 21 21 21 21 21 22 22
17 15 14 14 13 13 13 13 13 13 13 14 14 14 15 15 15 15 15 15 16 16 17 17 18 18 18 18 19 19 19 18 18 18 19 19 19 19 19 20 20 20 20 20 20 21 21 21 21 21 21 21 21 21 21 21 21 21 21 21 21 21 21 21 21 22 22 23 23 23 23 23 24 24 24 24 24 24 23 23 23 23 23 23 23 23
15 13 13 13 12 12 12 12 12 12 12 13 13 14 14 14 14 14 15 15 16 17 17 18 18 18 18 18 17 17 17 17 17 18 18 18 18 18 18 18 18 18 18 19 19 19 20 20 20 20 20 20 20 20 20 21 21 21 21 21 21 22 22 22 22 22 23 23 23 24 24 24 24 24 24 24 24 24 24 24 24 24 24 24 24 25
13 12 12 12 11 11 11 11 11 12 12 13 13 13 13 13 14 14 15 16 17 17 18 18 18 17 17 17 16 16 17 17 17 17 17 17 17 17 16 16 16 16 17 17 17 18 18 18 18 19 19 19 19 19 20 20 20 21 21 21 22 22 22 22 23 23 23 23 24 24 24 24 24 24 24 24 24 24 24 24 24 25 25 25 25 26
12 12 11 11 10 10 11 11 12 12 12 12 13 13 13 14 14 15 16 16 17 17 17 17 17 16 16 16 16 16 16 17 17 17 17 16 16 15 15 15 15 15 15 15 15 15 15 16 16 16 17 17 17 18 18 19 19 20 20 21 21 21 22 22 23 23 23 23 24 24 24 24 24 24 24 24 24 24 24 24 24 24 25 25 25 26
11 10 10 10 11 11 11 11 12 12 12 12 13 13 14 14 15 16 16 17 17 17 17 16 16 15 15 16 16 17 17 17 17 16 16 15 15 14 14 13 13 13 12 12 12 12 13 13 13 14 14 15 16 16 17 18 18 19 19 20 20 21 21 22 22 23 23 23 24 24 24 24 24 24 24 24 24 24 24 24 24 25 25 25 26 26
9 9 9 9 9 10 11 11 11 11 12 12 12 13 14 15 15 16 16 16 16 15 15 15 15 15 16 16 17 17 17 17 17 16 15 14 13 12 12 11 11 11 10 10 10 10 11 11 12 12 13 14 15 15 16 17 17 18 19 19 20 20 21 21 22 22 23 23 23 24 24 24 24 25 25 25 25 25 25 26 26 26 26 27 27 27
8 8 8 9 9 9 10 10 11 11 11 12 12 13 14 15 15 15 15 14 14 14 14 15 16 16 17 17 17 17 17 17 16 16 14 13 12 11 10 10 10 10 9 9 10 10 11 11 12 13 13 14 14 15 16 16 17 18 18 19 19 20 20 21 21 22 22 23 23 24 24 25 25 25 26 26 26 27 27 27 27 28 28 28 28 27
7 7 8 9 9 9 9 10 10 11 11 11 12 13 14 14 13 13 13 12 12 13 14 16 17 18 18 17 17 17 17 16 15 14 13 12 11 10 10 10 10 10 10 10 11 11 12 12 13 13 13 14 14 15 15 16 17 17 18 18 19 19 20 20 21 21 22 23 23 24 25 25 26 26 27 27 27 28 28 28 29 29 29 28 28 27
8 8 8 9 9 10 10 9 9 10 10 11 12 12 12 11 11 11 12 13 14 15 16 17 18 18 18 18 18 17 17 16 14 12 11 10 10 9 9 10 10 10 11 11 12 12 12 13 13 13 13 13 14 14 15 15 16 16 17 17 18 18 19 19 20 21 22 22 23 24 25 25 26 26 27 27 28 28 29 29 29 29 29 29 28 27
8 9 9 9 9 9 9 9 9 9 10 10 9 9 9 9 9 10 12 14 16 17 18 19 18 18 18 19 19 18 17 15 13 11 10 10 9 9 10 10 11 11 12 13 13 13 13 13 13 12 12 12 13 13 14 14 15 15 15 16 16 17 17 18 19 20 21 22 22 23 24 25 25 26 26 27 27 28 28 28 29 29 29 29 28 27
9 8 8 8 8 8 8 8 8 8 8 7 7 6 6 8 10 12 13 16 18 19 19 19 19 19 19 19 19 18 16 14 12 11 10 10 10 10 11 12 13 13 13 13 13 12 12 12 12 12 12 12 12 12 13 13 13 14 14 14 15 15 16 17 18 19 20 20 21 22 22 23 24 25 25 25 26 26 27 27 27 27 27 27 27 27
7 7 6 7 7 7 7 7 6 5 5 5 5 7 8 10 12 14 16 17 18 18 19 19 19 20 20 19 18 17 14 13 12 11 11 10 11 11 13 14 14 14 14 14 13 12 11 12 11 11 11 12 12 12 13 13 13 13 13 14 14 15 16 17 17 18 19 19 20 21 21 22 23 23 24 24 25 25 25 25 26 26 26 26 26 26
4 4 5 6 7 7 6 5 4 3 4 5 7 9 11 13 15 16 17 18 18 18 18 19 20 21 21 19 17 14 12 11 11 12 12 12 11 12 14 15 15 14 13 13 12 11 10 11 11 11 11 12 12 13 13 13 13 13 13 14 14 15 16 17 17 18 19 19 20 20 21 22 22 23 24 24 24 25 25 25 25 25 25 25 26 26
4 4 6 6 7 6 5 5 5 6 8 9 11 12 14 15 16 17 17 17 17 18 19 20 22 23 21 18 14 11 10 11 12 13 14 14 12 12 14 16 16 14 12 12 11 11 10 10 11 12 12 13 13 13 13 13 13 13 14 14 15 15 16 17 18 18 19 20 20 21 22 22 23 24 24 25 25 25 26 26 26 26 26 26 26 26
5 6 7 7 7 7 7 8 9 10 11 12 13 14 14 15 15 15 16 17 18 19 20 21 23 24 23 18 12 9 9 11 13 14 15 15 14 13 14 15 15 14 12 11 11 11 11 11 12 12 13 14 14 14 14 14 14 14 14 14 15 16 17 18 18 19 20 20 21 21 22 23 23 24 25 25 26 26 26 27 27 27 27 27 27 27
7 7 8 8 9 9 10 10 11 11 12 13 13 14 14 14 15 15 16 17 18 20 21 22 22 22 21 20 14 9 9 12 14 16 17 17 15 13 12 13 13 13 11 11 11 11 12 12 13 14 14 15 15 15 15 14 14 14 14 15 16 16 17 18 19 19 20 20 21 21 22 22 23 24 24 25 26 26 27 27 27 28 28 28 28 28
8 9 9 9 10 10 10 10 10 10 11 12 13 14 14 15 15 16 17 18 19 20 21 21 20 19 19 18 14 11 11 14 16 18 19 18 16 13 12 12 13 12 12 11 11 12 12 13 14 14 15 15 15 15 15 15 15 15 15 15 15 16 16 17 18 18 18 19 19 20 21 22 22 23 24 24 25 26 26 26 27 27 28 28 28 28
9 9 9 10 10 9 9 9 9 10 12 13 14 15 16 16 17 18 19 19 20 20 20 18 18 18 17 17 15 13 14 16 18 20 21 20 16 13 13 14 14 14 13 12 12 13 14 14 15 15 16 16 16 16 16 15 15 15 14 14 15 15 15 15 16 16 17 17 18 18 19 20 21 21 22 23 24 24 25 26 26 26 27 27 28 28
11 10 10 10 10 9 9 10 11 12 13 15 15 16 17 18 19 20 20 20 19 18 17 17 17 17 16 17 16 15 15 17 19 20 21 21 18 15 14 15 16 15 14 14 13 14 15 16 16 16 17 17 17 16 16 15 15 14 14 14 13 13 14 14 14 15 15 16 16 17 18 18 19 20 21 22 23 23 24 25 25 26 27 27 28 28
13 13 13 13 13 13 13 14 15 15 16 17 17 18 19 20 21 21 21 19 18 16 16 16 17 17 16 16 16 15 15 16 17 19 21 22 20 18 15 16 17 17 16 15 15 16 16 17 17 17 17 17 17 17 16 15 14 14 13 13 13 13 13 13 14 14 15 15 16 17 18 18 19 20 21 22 22 23 24 24 25 26 26 27 27 28
15 16 16 15 15 16 16 16 17 17 18 19 19 20 20 21 21 20 19 18 17 16 16 16 16 16 16 17 17 17 16 15 16 17 19 22 22 20 17 17 18 18 17 17 17 17 17 18 18 18 18 18 18 17 16 15 14 13 13 13 14 14 14 14 15 15 16 16 17 18 18 19 19 20 20 21 22 22 23 23 24 25 25 26 26 27
16 16 16 16 16 16 16 17 17 17 18 18 19 19 19 18 18 17 16 16 15 15 16 17 17 18 17 18 18 17 15 15 15 17 18 21 23 21 19 18 19 19 18 18 18 19 19 19 19 19 19 19 18 17 16 15 14 14 14 14 14 15 15 15 16 16 17 17 17 17 18 18 18 19 19 20 20 21 21 22 22 23 23 24 25 25
15 15 16 16 16 16 16 16 16 16 16 16 16 16 16 16 15 15 15 14 14 15 17 18 19 19 19 18 18 18 16 15 16 16 18 21 22 22 19 18 19 20 20 19 19 20 21 21 20 19 19 19 18 17 16 15 15 15 15 15 16 16 16 17 17 17 17 17 17 17 18 18 18 18 18 19 19 20 20 21 21 21 22 23 24 24
14 14 14 14 15 15 15 15 15 15 15 15 15 15 15 15 15 15 15 14 15 16 17 19 20 20 19 19 19 19 17 16 16 16 17 19 22 22 19 17 18 20 22 22 22 22 23 23 22 21 20 19 18 17 16 16 16 16 16 16 17 17 17 18 18 18 18 18 18 18 18 19 19 19 19 19 19 19 20 20 21 21 21 22 23 24
11 12 12 13 13 13 14 14 14 14 14 14 14 14 14 15 16 16 16 15 16 16 17 19 20 20 20 20 20 19 18 17 16 15 15 17 20 21 19 18 19 21 23 24 24 25 25 25 24 23 21 20 19 18 18 17 17 17 18 18 18 19 19 19 19 19 19 19 19 19 20 20 20 19 19 19 19 19 19 20 20 21 21 22 23 24
8 9 10 11 11 12 12 12 12 12 12 12 12 12 13 14 15 16 16 15 16 17 18 19 20 21 21 22 21 20 19 18 15 13 13 15 18 19 19 19 20 22 25 27 27 27 27 27 26 24 23 21 20 20 19 19 19 19 19 19 19 19 19 19 19 19 20 20 20 20 21 20 20 19 19 19 19 19 19 19 20 20 21 22 23 24
7 8 8 9 9 10 10 10 10 10 10 10 10 11 12 13 14 15 15 15 16 17 18 19 20 21 22 22 22 21 20 16 13 11 12 14 17 19 20 21 22 23 25 28 30 30 29 28 27 26 25 24 23 22 22 21 21 20 20 20 20 20 20 20 20 20 21 21 21 21 21 21 20 19 19 19 19 19 19 19 19 20 20 21 23 24
9 9 9 9 8 8 8 8 8 8 8 9 9 10 12 13 14 14 15 15 16 17 18 19 20 20 21 22 22 22 20 15 11 11 12 14 17 20 21 22 22 23 25 27 30 31 32 30 28 27 27 26 26 25 24 23 22 22 21 20 20 20 20 20 21 21 21 21 22 21 21 21 20 19 19 18 18 18 18 18 18 19 19 21 22 23
9 9 9 9 8 8 7 7 7 7 8 8 9 10 11 12 13 14 15 15 16 17 18 18 19 19 19 20 21 22 21 15 11 11 14 15 18 20 21 22 23 23 23 24 26 28 31 32 31 29 29 29 29 27 26 25 24 23 23 22 21 21 21 21 21 21 21 21 22 21 21 21 20 19 18 18 17 17 17 17 17 17 18 20 22 23
8 8 8 8 8 8 7 8 8 8 8 9 9 10 11 12 13 14 15 15 16 16 17 18 18 18 19 19 20 21 22 17 14 13 15 17 19 21 21 22 23 23 22 23 23 24 27 32 34 33 32 32 31 30 29 27 26 26 25 24 23 22 22 21 22 22 22 22 22 21 21 20 19 18 18 17 17 17 16 16 16 16 17 19 21 22
8 8 8 8 7 8 8 8 8 9 9 10 10 11 12 13 14 14 15 15 16 16 16 17 18 18 19 19 20 21 20 18 16 15 16 17 19 20 21 22 23 24 23 24 24 25 27 31 34 35 35 34 33 32 31 30 28 27 26 26 25 24 23 22 22 22 22 22 22 21 20 20 19 18 18 17 17 16 16 15 15 15 16 18 20 21
8 8 8 8 8 8 8 9 9 10 11 11 12 12 13 14 14 15 15 15 15 15 16 16 17 18 19 19 20 20 20 18 16 15 16 17 19 21 22 22 23 24 25 25 25 26 28 30 32 34 35 35 34 33 32 30 29 28 27 27 26 26 25 24 23 23 23 22 22 21 21 20 19 19 18 17 17 16 16 15 15 14 15 17 19 21
8 8 8 8 8 8 9 10 10 11 12 12 13 13 14 14 15 15 15 15 14 14 15 15 15 16 17 18 19 20 19 17 16 15 16 17 19 20 22 22 23 23 24 25 26 27 28 29 30 31 33 35 35 33 32 30 29 28 27 27 27 27 26 25 24 24 24 23 23 22 22 21 20 20 19 19 18 17 17 16 15 15 15 16 17 19
9 8 8 8 9 9 10 10 11 12 12 13 13 14 14 14 14 14 14 14 14 14 14 14 14 15 15 16 18 18 18 16 15 15 15 16 18 19 21 22 22 22 23 24 25 26 27 29 29 30 31 33 35 34 32 30 29 28 28 27 27 26 26 25 25 25 25 25 24 24 23 23 22 22 21 20 19 18 17 16 16 15 15 16 17 18
9 9 9 9 9 10 10 11 12 12 13 13 13 13 14 14 14 13 13 13 13 13 13 13 14 14 14 15 16 16 16 15 14 14 14 15 16 18 19 20 21 21 22 22 23 25 26 28 29 30 31 31 32 33 33 31 30 29 28 28 27 27 26 25 25 25 26 26 26 25 25 24 24 23 22 21 20 19 18 17 17 17 17 18 18 19
10 9 9 9 10 10 11 12 12 12 13 13 13 13 13 13 13 13 13 13 13 13 13 13 13 13 14 14 14 14 14 14 14 14 14 15 16 17 18 20 20 21 21 21 22 23 25 26 28 30 31 31 31 31 32 32 32 31 30 28 27 27 27 26 26 26 27 27 27 27 26 25 25 24 24 22 22 21 21 20 20 20 21 21 22 22
10 9 9 10 10 11 11 12 12 13 13 13 14 14 14 13 13 13 13 12 12 12 13 13 13 13 13 13 13 13 13 13 13 13 14 14 15 16 17 19 20 20 20 20 21 22 23 25 27 29 30 32 32 32 32 32 32 32 32 30 29 28 27 27 27 27 27 28 28 28 27 26 26 25 25 24 24 24 24 24 24 24 24 25 25 25
9 9 10 10 11 11 12 12 13 13 13 14 14 14 14 13 13 13 12 12 12 12 13 13 13 13 13 13 13 13 13 13 13 13 14 14 15 16 17 18 19 20 20 20 20 21 23 25 26 28 29 31 32 33 33 33 32 32 32 33 32 30 28 27 27 27 28 28 28 29 28 28 27 27 26 26 26 26 26 26 26 26 26 26 27 28
9 10 10 11 11 11 12 12 13 13 14 14 14 14 13 13 13 12 12 12 12 12 12 13 13 14 14 14 13 13 13 13 13 13 14 14 14 15 16 18 19 19 20 20 21 22 23 25 27 28 29 30 31 32 33 34 33 32 32 33 33 32 30 29 28 28 29 29 29 29 29 29 28 28 28 27 27 27 27 27 28 28 27 27 28 29
9 10 11 11 11 11 12 12 13 13 13 14 13 13 13 13 13 12 12 12 12 12 13 13 14 15 15 14 14 14 14 14 14 14 14 14 15 15 16 17 18 18 19 20 21 22 23 24 26 28 29 30 31 32 34 34 33 32 32 33 33 34 33 31 29 29 30 30 29 29 29 29 29 29 29 29 29 28 28 29 29 29 29 29 29 30
9 10 10 11 11 11 12 12 12 13 13 13 13 13 13 13 13 13 13 13 13 13 14 15 16 17 17 17 16 16 16 16 15 15 15 15 15 15 15 16 17 17 18 19 21 23 23 24 26 27 28 29 30 32 34 35 34 33 32 32 33 34 35 33 31 30 30 31 30 30 30 30 30 30 30 30 30 30 31 31 30 30 31 31 31 31
10 10 10 10 11 11 12 12 13 13 13 13 13 12 13 13 13 13 14 14 14 15 15 17 18 18 19 19 19 18 18 17 17 16 16 15 14 14 15 15 16 16 17 18 20 22 23 25 26 27 27 28 30 32 33 34 35 35 34 32 32 32 33 33 33 33 32 32 32 31 31 30 31 31 32 32 32 32 32 33 33 33 32 32 32 32
9 9 10 10 10 11 12 12 13 13 13 13 13 13 13 13 13 14 14 15 15 16 17 18 19 20 20 20 20 20 20 19 18 17 16 15 15 15 15 15 15 16 16 17 19 20 22 25 26 26 26 27 29 32 33 34 35 35 35 33 32 32 32 32 33 33 33 34 33 33 32 32 32 33 34 34 34 34 34 34 34 34 34 33 32 32
9 10 10 10 11 12 12 12 13 13 13 13 13 13 13 13 14 14 15 16 16 17 18 18 19 20 21 21 21 21 21 20 19 19 18 17 16 16 16 17 17 17 18 18 19 20 21 23 25 26 27 28 30 32 33 34 34 35 35 33 32 32 32 33 33 33 33 33 34 34 33 33 33 33 34 35 36 36 35 35 34 34 34 33 32 32
10 10 11 11 12 12 12 13 13 13 13 13 13 13 13 14 14 15 15 16 17 17 18 18 19 19 20 20 21 21 21 21 21 20 19 19 19 19 19 19 20 20 20 20 21 21 22 23 24 25 26 29 31 33 33 32 32 33 33 33 32 33 33 34 33 33 33 33 34 34 34 33 33 33 34 35 36 36 36 35 34 33 32 32 31 31
10 11 11 12 12 13 13 13 13 14 14 14 13 13 13 13 14 15 15 16 16 17 18 18 19 19 20 20 20 20 21 21 21 22 21 21 21 22 22 22 23 23 23 23 23 23 24 24 24 24 25 27 29 32 32 31 31 31 31 31 32 32 34 34 34 34 33 33 33 33 33 33 33 33 35 36 36 36 36 35 34 32 31 30 30 29
10 11 12 12 13 13 14 14 14 14 14 14 13 13 13 13 13 14 15 16 16 17 18 18 19 20 20 20 20 20 21 22 22 23 23 23 23 24 24 25 25 25 25 26 26 26 27 27 26 25 24 25 26 29 30 30 30 30 30 30 31 32 34 34 34 34 33 33 33 33 32 32 33 34 34 35 36 37 37 35 34 32 30 29 29 28
11 11 12 13 13 14 14 14 14 14 14 13 13 13 13 13 13 14 15 16 16 17 18 19 19 20 21 21 21 21 22 23 24 24 25 24 25 25 26 27 27 27 27 28 28 28 29 29 28 27 25 24 24 25 27 29 30 30 30 31 31 32 32 33 34 33 32 32 32 32 32 33 34 34 34 35 36 36 36 36 34 33 31 29 29 29
11 12 12 13 13 14 14 14 14 13 13 13 13 13 13 13 14 14 15 16 17 18 19 19 20 20 21 22 22 23 23 24 25 25 25 25 25 26 27 27 27 27 28 29 29 29 29 29 29 28 27 25 23 22 24 26 28 29 30 31 31 31 31 32 32 32 32 31 32 33 34 34 34 34 33 34 35 35 36 35 34 33 32 30 30 30
Wind_Direction
252 250 248 247 245 246 248 250 251 250 251 251 252 255 259 263 268 271 275 277 280 282 284 286 287 288 288 287 287 287 286 286 285 284 284 284 284 285 285 286 287 287 288 288 288 288 288 288 288 287 287 287 287 287 287 286 286 286 285 284 284 283 283 282 280 278 277 276 275 275 275 273 272 271 270 268 266 268 271 272 273 273 273 273 273 273
244 244 243 245 245 245 247 249 250 249 250 252 254 258 262 267 272 277 282 284 286 287 288 289 289 289 289 289 289 288 287 287 286 286 286 286 287 287 287 287 288 288 288 288 288 288 288 288 287 287 287 288 288 288 288 288 287 287 286 286 285 285 284 283 281 280 279 278 277 276 275 273 272 272 272 271 270 271 273 274 275 275 274 275 275 274
240 238 239 242 243 243 244 248 251 252 255 257 261 266 271 276 280 284 287 289 290 290 289 290 290 290 290 291 291 290 290 290 290 290 290 290 290 289 289 288 288 287 287 288 288 288 288 288 288 288 288 288 289 289 289 289 289 288 288 288 287 287 285 284 283 282 281 280 280 279 278 277 276 276 275 274 274 274 274 275 275 275 276 275 275 274
237 234 236 241 243 245 247 251 256 260 264 268 272 276 280 284 287 289 290 291 291 291 291 291 292 292 293 293 294 294 294 295 295 295 295 294 293 292 290 289 288 287 287 287 288 288 288 288 288 289 289 289 290 290 290 290 290 289 289 289 288 287 286 285 284 284 283 283 283 282 282 282 281 281 280 279 279 279 279 278 278 278 278 278 277 276
234 233 238 242 246 250 255 259 264 270 274 278 282 286 289 291 292 292 292 291 291 292 293 294 296 297 298 299 299 299 300 300 300 300 299 297 295 293 291 289 288 287 287 288 288 289 289 289 290 290 290 290 290 290 290 290 290 289 289 289 288 287 287 286 285 285 285 284 284 284 284 284 284 284 284 284 283 283 283 282 282 282 281 280 279 278
235 237 243 250 255 261 267 272 276 281 286 290 293 294 295 295 294 293 293 293 294 295 297 299 300 302 303 304 304 304 305 305 305 304 302 300 297 294 292 290 288 288 288 289 289 290 290 291 291 291 290 290 290 290 289 289 289 289 289 288 288 287 287 286 286 285 285 285 285 285 285 286 286 287 287 287 286 286 285 284 283 282 281 280 280 279
242 248 256 264 270 276 281 285 289 292 296 299 299 298 297 296 295 295 296 297 298 300 301 303 304 305 306 307 308 308 309 309 308 305 303 300 297 294 291 289 288 288 289 290 291 292 292 292 292 292 291 291 290 289 289 288 288 288 287 287 286 285 285 284 284 285 285 285 286 286 287 287 288 288 288 288 287 286 285 284 283 282 281 280 279 278
254 263 272 278 283 287 290 291 293 294 297 299 299 298 297 297 297 297 298 299 300 301 302 304 306 308 309 310 311 312 312 311 309 306 302 299 295 292 290 288 288 289 291 293 294 295 296 297 296 295 294 293 291 290 289 287 286 285 284 283 283 282 282 283 283 284 284 285 286 287 287 288 288 288 288 287 287 286 285 284 283 282 280 280 279 279
264 274 281 284 286 289 290 290 290 292 295 296 297 297 297 297 297 297 298 298 299 300 303 306 309 310 311 312 312 313 313 312 310 307 303 300 296 294 292 292 293 295 297 300 303 304 305 304 302 300 297 294 292 289 287 284 283 282 281 280 281 281 282 282 283 283 284 285 285 286 286 286 286 286 286 286 285 285 284 283 282 282 281 280 280 280
271 277 283 284 285 286 286 287 288 290 293 294 294 293 293 294 295 297 297 298 300 302 306 309 311 311 311 311 312 314 314 312 310 306 303 301 299 299 300 302 304 306 308 309 310 310 308 306 303 300 296 293 290 287 284 282 281 281 281 282 282 282 283 283 283 283 283 284 284 284 284 284 284 284 283 283 283 283 282 282 281 281 281 280 280 279
282 285 286 285 286 287 287 288 290 291 292 292 291 291 291 292 294 299 302 303 304 306 308 309 309 309 310 311 314 316 316 314 310 305 301 300 300 303 306 309 312 313 314 313 312 310 308 306 302 299 296 292 290 288 286 285 285 284 284 285 285 285 284 284 284 284 284 283 283 283 282 282 282 282 282 282 282 282 281 281 281 281 280 280 279 278
291 291 291 290 289 290 292 294 296 296 295 295 296 300 303 301 302 303 302 302 303 305 306 306 307 308 310 314 317 320 319 315 310 306 302 302 306 310 314 315 315 315 314 313 311 310 309 307 304 301 298 295 294 293 292 291 290 290 289 289 289 289 289 289 288 288 287 287 286 286 285 284 284 284 283 283 283 282 282 282 282 281 281 281 280 278
295 295 295 293 292 293 297 299 301 302 303 305 307 307 304 298 298 298 297 297 299 302 303 305 307 309 313 317 320 321 318 314 310 308 307 311 317 320 319 316 316 316 315 313 312 312 311 308 306 303 302 301 300 300 299 298 297 297 296 297 297 298 297 296 295 293 292 291 290 289 288 288 287 287 286 286 285 285 285 284 284 283 283 282 281 280
296 295 292 286 286 291 298 302 306 310 311 305 295 287 282 280 282 286 288 291 295 299 302 304 307 310 314 318 320 319 316 312 310 310 312 316 321 322 318 313 313 315 315 313 314 315 314 311 309 308 306 306 306 307 307 306 306 307 308 308 307 306 304 301 299 296 295 294 292 291 290 290 290 290 289 289 288 287 287 286 285 284 283 282 281 280
293 286 277 274 280 289 296 300 300 289 272 265 263 266 270 274 277 281 286 289 293 298 303 306 308 310 312 316 319 318 313 311 311 311 313 317 321 321 316 312 311 313 314 313 315 318 317 314 313 312 312 312 313 315 316 317 318 318 317 315 312 308 306 303 300 299 297 296 295 294 293 292 291 290 290 289 288 287 286 285 284 283 282 281 280 280
276 268 264 270 277 282 281 273 259 250 251 257 261 266 271 274 278 283 287 290 295 300 304 306 307 309 312 316 319 318 313 311 311 312 313 317 321 322 317 313 312 314 315 316 318 321 320 318 316 316 317 319 321 322 324 325 325 323 320 316 312 309 307 304 302 300 299 297 295 294 292 291 289 288 287 286 285 284 283 282 282 281 281 281 280 280
254 255 258 263 265 264 261 258 255 255 259 264 268 271 274 276 280 285 288 292 297 301 303 305 306 308 311 316 321 322 315 313 314 315 315 318 322 325 321 316 315 316 317 320 323 325 324 322 320 320 322 324 326 328 329 329 327 324 320 317 313 310 307 304 302 300 298 296 293 291 289 288 286 285 284 283 282 282 281 281 281 281 281 281 281 280
248 250 254 256 258 261 264 265 266 267 268 268 269 271 273 277 281 286 289 293 296 299 301 303 304 305 307 311 320 331 321 319 319 318 317 318 322 327 326 321 318 317 318 322 326 328 326 324 323 324 326 328 330 331 331 330 327 324 320 316 312 308 305 302 299 297 295 293 291 289 288 287 286 285 284 283 282 282 281 281 281 281 281 281 281 282
248 250 254 259 265 271 275 275 273 270 268 267 269 271 273 277 282 286 288 292 295 296 298 299 301 303 305 310 319 329 329 325 321 319 318 317 322 329 332 326 322 319 320 324 328 329 327 325 325 326 328 330 331 332 331 329 326 323 318 314 309 306 302 299 297 296 294 292 291 290 288 287 286 286 285 284 283 283 282 282 282 282 282 283 283 283
251 253 258 266 273 277 276 271 266 263 265 269 274 276 276 279 283 285 288 291 293 295 297 300 302 305 309 313 319 327 331 327 321 318 317 316 321 331 335 330 325 322 322 326 330 331 328 327 327 328 329 331 332 331 330 328 324 320 315 311 307 304 302 300 298 297 295 294 293 291 290 289 288 287 287 286 286 285 284 284 284 284 283 283 283 283
256 257 262 266 268 267 261 261 260 261 266 274 278 279 280 283 285 287 289 291 292 294 298 301 303 305 308 309 314 323 329 324 319 316 316 316 320 329 335 331 325 322 323 327 331 330 328 327 327 328 329 330 331 330 328 325 321 317 313 309 307 305 304 303 302 301 300 298 297 296 295 294 292 291 290 289 288 287 286 285 285 284 283 282 282 282
260 260 261 261 262 262 262 264 266 269 274 276 278 280 282 285 287 288 290 290 290 292 296 298 299 300 302 305 312 322 327 323 318 317 316 313 317 326 333 329 324 322 322 327 329 328 326 325 325 326 327 328 329 328 326 322 318 314 311 309 308 307 307 307 307 307 307 306 305 303 301 299 297 294 292 290 289 287 286 285 284 283 282 282 281 281
266 266 266 265 265 267 269 270 273 276 278 278 279 281 284 285 286 287 288 288 289 290 292 293 295 298 303 308 315 322 325 324 323 320 316 310 313 322 328 326 322 320 321 325 326 325 323 322 323 324 326 328 328 327 324 320 316 312 310 309 309 310 311 312 312 312 311 309 308 305 303 300 297 295 293 290 289 287 286 285 284 283 282 282 282 282
274 274 274 274 274 275 277 277 278 278 279 279 280 281 283 285 286 288 289 291 293 295 297 299 301 303 308 313 316 320 325 327 325 321 313 308 310 316 323 323 320 318 319 322 322 321 320 319 321 324 326 328 328 326 323 318 315 312 310 310 311 312 313 313 312 311 309 308 306 305 303 301 299 298 295 293 292 290 288 287 286 285 285 285 284 284
276 277 279 280 281 282 282 282 282 282 282 284 285 286 287 289 290 292 294 298 300 301 301 300 300 303 311 315 318 321 325 325 322 317 310 306 307 312 317 320 318 316 317 319 320 319 318 318 320 324 327 328 328 326 323 319 315 313 312 312 312 313 312 311 310 308 307 306 305 305 305 305 305 304 302 300 297 295 293 292 291 290 289 288 287 286
278 279 280 281 281 281 281 281 282 284 286 289 291 293 295 296 297 299 301 303 303 302 300 300 302 307 313 316 317 318 321 321 319 315 310 305 304 307 313 317 317 314 314 317 318 318 318 318 320 324 327 328 328 326 324 321 318 316 315 314 313 312 311 309 307 306 305 305 306 307 309 310 311 310 308 305 302 300 298 296 294 293 292 290 289 287
277 278 278 278 278 278 278 279 280 282 284 286 288 291 294 295 295 297 298 302 305 305 303 303 305 309 312 312 313 314 316 317 319 318 312 305 302 303 310 316 316 314 314 316 317 317 317 317 319 323 326 328 328 327 325 323 320 318 316 315 314 312 310 308 307 306 306 307 308 310 312 313 313 312 310 307 304 302 299 297 295 294 292 291 288 286
278 276 275 275 275 276 276 277 279 281 282 282 283 284 286 287 288 290 295 302 304 303 301 301 303 305 307 308 309 311 312 317 323 323 313 305 301 302 309 314 315 315 314 314 315 316 315 316 318 321 324 327 328 328 326 324 322 319 317 315 314 312 310 309 308 308 308 309 311 312 313 314 314 312 310 307 305 302 300 297 296 294 291 289 286 283
289 284 281 279 278 277 277 278 280 282 284 285 285 284 285 285 286 290 296 301 300 297 297 298 300 301 302 305 307 309 311 320 328 324 312 306 302 303 308 311 312 312 312 312 312 313 313 315 318 321 323 325 326 326 325 323 321 320 318 316 314 313 312 311 311 311 311 312 312 313 314 314 313 312 310 307 305 302 300 298 295 293 289 286 284 282
293 291 289 287 285 283 281 281 281 282 283 285 286 287 287 289 290 293 296 297 295 294 294 295 296 298 299 302 304 306 309 321 326 318 309 301 297 299 304 305 306 307 308 309 310 312 313 316 318 320 321 322 323 323 323 322 322 321 320 318 317 316 315 315 314 314 313 313 313 314 314 313 312 311 309 307 305 302 300 298 296 293 290 287 285 284
289 290 291 291 291 289 287 285 284 283 283 283 284 285 287 289 291 292 293 292 292 292 293 294 295 296 297 298 297 298 303 314 317 308 303 295 293 295 299 300 301 304 306 307 309 311 312 314 317 318 318 319 319 320 321 322 323 324 323 322 321 320 320 319 318 316 315 314 314 314 313 313 312 311 309 307 305 303 301 299 298 296 293 291 289 289
288 290 291 292 292 291 290 289 288 287 286 285 285 286 287 288 289 290 291 291 292 293 293 294 296 297 297 295 293 294 300 308 310 306 301 296 295 296 298 299 301 304 307 307 306 305 305 308 313 316 317 317 318 320 321 323 325 326 326 325 324 324 324 323 321 319 317 316 315 314 314 313 313 311 310 308 307 305 304 302 301 300 297 296 295 295
295 295 295 294 294 293 293 292 292 292 291 291 291 290 291 291 292 293 294 294 295 295 295 296 296 296 296 295 294 296 301 307 310 309 304 299 297 298 299 301 303 305 307 307 305 302 301 303 308 313 315 316 317 319 321 324 326 327 327 327 327 328 328 327 325 323 321 319 317 316 315 315 314 313 312 312 310 309 307 305 305 304 304 301 299 299
301 300 298 295 294 292 292 293 294 296 297 297 297 297 297 297 298 298 299 299 298 297 296 296 295 294 295 295 295 298 303 307 310 309 304 299 297 298 300 301 303 305 306 305 305 303 302 303 306 309 312 314 316 317 320 323 325 327 328 328 329 329 330 330 329 326 324 322 320 319 319 319 318 317 316 316 315 314 312 310 309 308 307 303 299 297
301 298 295 292 291 290 292 295 297 299 300 301 301 301 301 302 302 302 302 302 301 300 298 296 294 293 293 293 295 298 303 308 308 304 300 297 295 296 298 299 301 303 303 303 304 304 304 305 306 307 309 312 314 316 319 322 324 326 328 329 330 330 331 332 331 329 327 325 324 323 324 323 323 321 321 321 320 319 317 316 314 312 309 304 299 295
297 294 291 289 289 291 293 296 298 300 301 301 302 302 303 303 304 304 304 304 303 302 301 299 297 296 295 294 295 298 304 307 306 302 298 296 295 295 295 297 299 301 301 302 303 304 305 306 307 307 308 309 312 315 319 321 323 324 327 329 330 331 333 334 333 331 329 328 327 327 327 326 326 325 324 324 323 322 321 320 319 317 315 311 307 303
291 290 289 289 290 292 294 295 297 298 300 301 301 302 303 304 305 305 305 305 305 304 303 302 300 299 298 298 299 300 305 307 306 303 300 298 296 296 295 297 299 300 300 302 304 305 306 307 308 308 308 308 309 312 317 321 323 325 328 330 331 332 334 335 335 333 330 329 329 329 329 328 327 326 325 325 325 324 323 322 323 323 321 320 317 313
287 286 288 289 291 293 294 295 297 299 301 302 304 305 306 307 307 307 307 307 306 305 304 303 302 301 301 301 301 303 305 305 305 304 302 300 299 297 297 298 299 300 300 302 303 304 305 305 305 305 306 307 308 311 315 318 321 324 328 331 332 332 334 334 334 332 331 330 329 329 329 328 327 326 326 326 326 325 325 325 326 327 326 324 321 318
285 287 290 291 293 293 295 297 299 302 303 305 307 309 310 311 310 310 309 309 308 308 307 305 305 305 305 305 305 305 306 306 306 306 305 303 302 300 299 300 300 300 301 302 302 303 303 302 301 301 303 305 308 311 315 316 317 320 325 328 331 332 333 333 331 331 331 330 330 329 329 329 328 327 327 327 327 326 326 326 327 327 326 323 320 319
287 289 292 293 294 295 297 300 302 304 306 308 310 312 312 312 311 311 312 312 313 313 312 311 311 311 311 310 311 311 311 311 311 310 309 307 305 303 302 301 301 302 303 304 304 304 302 302 301 301 302 303 305 308 312 314 315 317 319 320 323 328 332 332 331 331 332 331 330 329 329 329 329 328 328 327 326 325 325 325 325 324 323 320 317 316
291 293 295 295 296 298 301 304 305 307 309 311 312 312 312 313 313 315 316 317 317 317 317 317 316 315 314 315 316 316 317 316 316 315 313 312 309 307 304 303 303 304 306 307 306 305 302 301 301 302 302 303 304 306 308 310 312 314 314 313 316 321 327 329 330 331 331 330 330 329 329 328 328 328 327 326 324 324 325 324 322 321 320 318 316 315
295 296 296 297 298 301 304 305 307 308 309 310 311 312 314 315 317 319 320 320 321 321 321 320 320 318 317 316 317 319 319 319 319 318 317 316 313 311 308 306 306 307 308 308 305 303 302 301 300 300 301 302 302 302 303 307 310 311 310 310 313 318 322 325 328 329 328 328 329 329 329 329 328 328 326 324 323 324 326 324 321 318 317 317 316 315
297 297 298 300 302 305 306 307 308 308 309 309 311 313 315 317 318 318 319 321 321 322 323 324 323 322 321 320 320 320 320 320 321 321 320 319 318 315 313 310 309 309 309 307 304 303 304 303 300 299 300 302 301 299 299 302 306 308 308 310 311 311 311 318 324 327 327 327 328 329 329 329 329 327 326 324 323 323 324 323 318 315 316 316 315 314
298 299 301 304 306 308 309 310 310 310 310 312 313 314 315 316 317 318 319 320 322 323 325 326 325 323 323 324 324 323 323 322 323 324 324 323 322 320 317 315 313 312 310 307 304 303 304 302 300 300 302 301 299 298 298 300 302 305 308 310 310 307 305 311 318 324 325 327 328 329 329 330 329 327 324 322 321 321 321 320 318 317 316 316 315 313
300 303 305 308 310 311 311 311 311 311 312 312 313 313 314 315 317 319 322 323 324 326 328 329 328 326 325 326 327 326 325 324 325 326 326 326 325 324 322 320 319 317 314 310 306 304 301 300 300 302 304 302 298 296 296 298 300 303 306 309 309 308 308 312 316 319 320 323 325 326 328 329 328 324 321 319 319 318 317 316 315 314 314 314 313 312
305 308 311 312 312 312 312 311 311 311 312 312 312 312 314 317 319 322 324 326 327 327 328 328 327 325 324 325 327 327 326 326 326 328 329 329 329 329 328 327 325 323 319 315 311 307 303 300 301 303 304 301 298 296 296 297 298 301 304 307 308 308 309 312 314 316 318 319 320 323 326 327 324 319 315 314 314 314 313 312 311 310 310 311 310 310
310 311 312 311 311 311 311 312 312 311 311 311 312 314 316 319 321 323 325 326 327 327 326 326 326 324 323 325 326 327 326 327 328 330 331 332 332 332 332 331 330 327 324 320 316 312 308 306 305 304 301 298 296 296 298 299 299 300 302 305 306 306 307 309 313 316 317 317 318 320 323 322 318 313 311 310 309 308 308 308 307 307 307 307 308 308
308 309 309 309 310 310 311 311 311 310 309 310 311 314 316 319 322 324 324 325 325 325 324 325 326 325 324 325 326 327 327 327 328 330 332 333 334 333 333 332 331 329 327 324 320 317 314 312 309 306 301 297 294 295 299 302 303 303 303 305 305 304 305 308 312 315 315 315 316 317 318 315 312 309 308 307 305 304 304 305 305 306 306 306 306 307
306 307 308 309 310 310 309 310 310 309 308 307 309 312 315 318 320 322 322 323 323 324 325 327 327 326 325 325 326 327 328 328 329 330 331 332 333 333 333 333 331 329 327 324 323 321 319 316 313 309 305 300 297 297 301 304 306 306 306 305 304 303 304 307 310 312 312 311 312 312 311 309 307 305 304 302 301 301 302 304 305 306 307 308 308 308
306 307 308 309 309 309 308 309 308 308 307 307 309 312 315 317 319 321 322 323 324 325 327 328 328 326 325 325 326 327 328 327 328 328 330 331 332 332 332 332 331 329 326 324 322 321 318 316 313 311 308 305 301 300 301 304 307 308 306 303 302 302 302 304 306 307 307 306 306 306 305 303 303 302 301 299 299 300 302 304 305 307 309 310 310 310
306 307 308 309 308 308 308 308 308 308 309 311 313 315 317 319 320 322 323 324 325 326 327 327 328 327 324 324 325 327 327 326 326 326 328 330 331 331 330 330 329 326 323 321 319 318 315 312 310 308 307 307 305 302 300 302 304 304 302 301 301 301 299 300 301 302 302 301 301 301 301 301 301 301 301 299 299 300 301 302 304 306 309 311 311 311
Height
1481 1481 1482 1483 1483 1484 1485 1485 1486 1486 1486 1487 1488 1488 1489 1489 1489 1489 1489 1489 1489 1489 1489 1489 1489 1489 1489 1489 1489 1488 1488 1488 1487 1486 1486 1485 1485 1484 1484 1483 1483 1482 1482 1482 1482 1481 1481 1481 1481 1481 1480 1480 1480 1480 1479 1479 1479 1478 1478 1477 1477 1477 1477 1477 1478 1478 1478 1478 1478 1478 1477 1477 1477 1477 1477 1477 1476 1476 1476 1476 1476 1476 1477 1477 1477 1477
1480 1481 1481 1481 1482 1483 1484 1484 1485 1486 1486 1487 1487 1488 1488 1488 1488 1488 1488 1487 1487 1487 1487 1487 1487 1487 1487 1487 1486 1486 1486 1486 1485 1484 1484 1483 1482 1482 1481 1481 1481 1481 1481 1480 1480 1480 1479 1479 1479 1479 1479 1478 1478 1478 1477 1477 1476 1476 1476 1476 1475 1475 1475 1475 1475 1476 1475 1475 1475 1475 1475 1475 1475 1475 1475 1474 1474 1474 1474 1475 1475 1475 1475 1475 1475 1475
1479 1480 1480 1481 1482 1483 1483 1484 1484 1485 1486 1486 1486 1486 1487 1487 1486 1486 1486 1486 1486 1486 1485 1485 1485 1485 1485 1485 1485 1484 1484 1483 1483 1482 1481 1481 1481 1480 1480 1480 1479 1479 1479 1478 1478 1478 1477 1477 1477 1477 1477 1476 1476 1476 1476 1475 1475 1474 1474 1473 1473 1473 1473 1473 1473 1473 1473 1473 1473 1473 1473 1472 1472 1472 1472 1472 1472 1472 1472 1472 1472 1472 1472 1472 1472 1472
1479 1479 1480 1481 1481 1482 1483 1483 1484 1484 1485 1485 1485 1485 1485 1485 1485 1485 1485 1484 1484 1484 1484 1483 1483 1483 1483 1483 1483 1482 1482 1481 1481 1480 1480 1479 1479 1478 1478 1478 1477 1477 1476 1476 1476 1476 1476 1476 1476 1475 1475 1475 1474 1474 1473 1473 1473 1472 1472 1472 1471 1471 1471 1471 1471 1471 1471 1471 1471 1471 1471 1470 1470 1470 1471 1471 1471 1470 1470 1470 1470 1470 1470 1470 1470 1470
1478 1478 1479 1480 1481 1481 1482 1483 1483 1483 1484 1484 1484 1484 1484 1484 1483 1483 1483 1483 1482 1482 1482 1481 1481 1481 1481 1481 1481 1481 1480 1480 1479 1478 1478 1477 1477 1476 1476 1476 1476 1475 1475 1475 1474 1474 1474 1474 1474 1474 1473 1473 1473 1472 1472 1471 1471 1471 1470 1470 1470 1470 1469 1469 1469 1469 1469 1469 1469 1468 1468 1468 1468 1468 1468 1468 1468 1468 1468 1468 1468 1468 1468 1468 1468 1468
1477 1478 1478 1479 1480 1481 1481 1482 1482 1482 1482 1482 1482 1482 1482 1482 1482 1482 1481 1481 1481 1480 1480 1480 1480 1480 1480 1480 1479 1479 1478 1478 1477 1476 1476 1476 1475 1475 1475 1474 1474 1474 1473 1473 1473 1473 1473 1473 1472 1472 1472 1471 1471 1471 1471 1470 1469 1469 1469 1468 1468 1468 1468 1467 1467 1467 1467 1467 1466 1466 1466 1466 1466 1466 1466 1466 1466 1466 1466 1466 1466 1466 1466 1466 1466 1466
1476 1477 1477 1478 1479 1480 1480 1481 1481 1481 1481 1481 1481 1481 1481 1481 1480 1480 1479 1479 1479 1478 1478 1478 1478 1479 1478 1478 1478 1477 1476 1476 1476 1475 1474 1474 1474 1473 1473 1473 1472 1472 1472 1472 1472 1472 1471 1471 1471 1471 1471 1470 1470 1470 1469 1469 1468 1468 1467 1467 1467 1466 1466 1466 1466 1465 1465 1465 1465 1465 1464 1464 1464 1464 1464 1464 1464 1464 1464 1464 1464 1464 1464 1464 1464 1463
1476 1476 1476 1477 1478 1478 1479 1479 1479 1480 1480 1480 1480 1479 1479 1479 1478 1478 1478 1477 1477 1477 1477 1477 1477 1477 1477 1477 1476 1476 1475 1474 1474 1473 1473 1472 1472 1472 1471 1471 1471 1471 1471 1471 1471 1471 1471 1470 1470 1470 1470 1469 1469 1468 1468 1467 1467 1466 1466 1466 1465 1465 1465 1464 1464 1464 1463 1463 1463 1463 1462 1462 1462 1462 1462 1462 1462 1461 1461 1461 1461 1461 1461 1461 1461 1461
1476 1476 1476 1476 1477 1478 1478 1478 1479 1479 1479 1479 1479 1478 1478 1477 1477 1477 1476 1476 1476 1476 1476 1476 1476 1476 1476 1475 1475 1474 1473 1473 1472 1471 1471 1471 1470 1470 1470 1470 1470 1470 1470 1470 1470 1469 1469 1469 1469 1469 1468 1468 1467 1467 1466 1466 1466 1465 1465 1464 1464 1463 1463 1463 1462 1462 1462 1461 1461 1461 1461 1461 1460 1460 1460 1460 1459 1459 1459 1459 1459 1459 1459 1459 1459 1459
1475 1475 1475 1476 1476 1477 1477 1478 1478 1478 1478 1478 1477 1477 1477 1476 1476 1476 1476 1476 1475 1475 1475 1475 1475 1475 1474 1474 1473 1473 1472 1471 1471 1470 1470 1469 1469 1469 1468 1468 1468 1468 1468 1468 1468 1468 1468 1468 1467 1467 1467 1466 1466 1465 1465 1464 1464 1463 1463 1462 1462 1462 1461 1461 1461 1460 1460 1460 1459 1459 1459 1458 1458 1458 1458 1457 1457 1457 1457 1456 1456 1456 1456 1456 1456 1457
1474 1475 1475 1475 1476 1476 1476 1477 1477 1477 1477 1477 1476 1476 1476 1476 1475 1475 1475 1474 1474 1474 1474 1474 1474 1473 1473 1472 1472 1471 1471 1470 1469 1469 1468 1468 1468 1467 1467 1467 1467 1467 1467 1467 1467 1467 1466 1466 1466 1466 1465 1465 1464 1464 1463 1463 1462 1462 1461 1461 1461 1460 1460 1459 1459 1459 1458 1458 1457 1457 1457 1456 1456 1456 1456 1455 1455 1455 1454 1454 1454 1454 1454 1454 1454 1454
1473 1474 1474 1474 1475 1475 1476 1476 1476 1476 1476 1476 1475 1475 1474 1474 1474 1474 1474 1473 1473 1473 1473 1472 1472 1472 1471 1471 1470 1469 1469 1468 1467 1467 1467 1466 1466 1466 1466 1466 1466 1466 1466 1465 1465 1465 1465 1465 1464 1464 1463 1463 1462 1462 1462 1461 1461 1460 1460 1459 1459 1458 1458 1458 1457 1457 1456 1456 1456 1455 1455 1454 1454 1454 1453 1453 1453 1452 1452 1452 1452 1451 1451 1451 1451 1451
1472 1473 1473 1473 1474 1474 1475 1475 1475 1475 1475 1474 1474 1474 1474 1473 1473 1473 1473 1472 1472 1472 1471 1471 1470 1470 1470 1469 1469 1468 1467 1466 1466 1466 1465 1465 1465 1465 1465 1464 1464 1464 1464 1464 1464 1464 1463 1463 1463 1462 1462 1461 1461 1461 1460 1460 1459 1459 1458 1458 1457 1457 1456 1456 1455 1455 1455 1454 1454 1453 1453 1452 1452 1452 1451 1451 1451 1451 1450 1450 1450 1449 1449 1449 1449 1449
1472 1472 1472 1473 1473 1474 1474 1474 1474 1474 1474 1474 1474 1473 1473 1473 1473 1472 1472 1472 1471 1471 1470 1470 1469 1468 1468 1468 1467 1467 1466 1465 1465 1464 1464 1464 1464 1464 1463 1463 1463 1463 1462 1462 1462 1462 1462 1461 1461 1461 1461 1460 1460 1459 1459 1458 1457 1457 1456 1456 1456 1455 1455 1454 1454 1453 1453 1452 1452 1452 1451 1451 1450 1450 1450 1449 1449 1449 1448 1448 1448 1447 1447 1447 1447 1447
1471 1472 1472 1473 1473 1473 1474 1474 1474 1474 1474 1473 1473 1473 1473 1472 1472 1472 1471 1471 1470 1469 1469 1468 1467 1467 1467 1467 1466 1466 1465 1464 1463 1463 1463 1463 1463 1463 1462 1461 1461 1461 1461 1461 1461 1461 1461 1460 1460 1459 1459 1458 1458 1457 1457 1456 1456 1455 1455 1454 1454 1454 1453 1453 1452 1452 1451 1451 1451 1450 1450 1449 1449 1448 1448 1447 1447 1447 1446 1446 1446 1446 1445 1445 1445 1445
1471 1472 1472 1472 1473 1473 1473 1473 1473 1473 1473 1473 1472 1472 1472 1471 1471 1470 1470 1469 1469 1468 1467 1467 1466 1465 1465 1466 1466 1465 1464 1463 1463 1462 1461 1461 1461 1462 1461 1460 1460 1460 1460 1460 1459 1459 1459 1459 1458 1458 1457 1457 1456 1456 1455 1455 1454 1454 1453 1453 1453 1452 1452 1451 1451 1451 1450 1450 1449 1449 1448 1448 1447 1447 1446 1446 1445 1445 1445 1444 1444 1443 1443 1443 1443 1442
1471 1472 1472 1472 1472 1472 1472 1472 1472 1472 1472 1472 1471 1471 1471 1470 1470 1469 1468 1468 1467 1467 1466 1466 1465 1464 1463 1463 1464 1464 1463 1462 1462 1461 1460 1460 1460 1460 1460 1459 1459 1458 1458 1458 1458 1458 1457 1457 1456 1456 1456 1455 1455 1454 1454 1453 1453 1452 1452 1451 1451 1451 1450 1450 1449 1449 1449 1448 1448 1447 1446 1446 1446 1445 1445 1444 1443 1443 1442 1442 1441 1441 1441 1441 1440 1440
1471 1471 1471 1471 1471 1471 1471 1471 1471 1471 1471 1471 1470 1470 1469 1469 1468 1468 1467 1467 1467 1466 1466 1465 1465 1464 1462 1462 1462 1463 1462 1461 1461 1460 1459 1458 1458 1459 1459 1458 1458 1457 1457 1457 1456 1456 1456 1456 1455 1455 1454 1454 1453 1453 1452 1452 1451 1451 1451 1450 1450 1449 1449 1448 1448 1447 1447 1446 1446 1445 1445 1444 1444 1443 1442 1442 1441 1441 1441 1440 1440 1439 1439 1438 1438 1438
1471 1471 1471 1471 1471 1471 1471 1471 1470 1470 1469 1469 1469 1468 1468 1467 1467 1467 1467 1466 1466 1466 1465 1464 1463 1463 1462 1461 1461 1461 1461 1461 1460 1459 1457 1457 1457 1457 1458 1457 1456 1456 1455 1455 1455 1455 1454 1454 1454 1453 1453 1452 1452 1451 1451 1451 1450 1450 1449 1449 1448 1448 1447 1447 1446 1446 1445 1445 1444 1443 1443 1442 1441 1441 1441 1440 1439 1439 1438 1438 1437 1437 1436 1436 1436 1435
1470 1470 1470 1470 1470 1470 1470 1469 1469 1468 1468 1468 1467 1467 1467 1466 1466 1466 1466 1466 1465 1465 1464 1463 1462 1461 1461 1460 1460 1460 1460 1460 1459 1458 1456 1456 1455 1456 1456 1456 1455 1454 1454 1454 1454 1453 1453 1452 1452 1452 1451 1451 1451 1450 1450 1449 1449 1448 1448 1447 1447 1446 1446 1445 1445 1444 1443 1443 1442 1441 1441 1440 1440 1439 1439 1438 1437 1437 1436 1436 1435 1435 1434 1434 1433 1433
1470 1469 1469 1469 1469 1469 1468 1468 1467 1467 1467 1466 1466 1466 1466 1466 1465 1465 1465 1464 1464 1463 1462 1462 1461 1461 1460 1459 1459 1459 1460 1459 1458 1457 1456 1454 1454 1454 1455 1454 1453 1452 1452 1452 1452 1452 1451 1451 1451 1451 1450 1450 1449 1449 1448 1448 1447 1447 1446 1446 1445 1445 1444 1443 1443 1442 1442 1441 1441 1440 1439 1439 1438 1437 1437 1436 1436 1435 1434 1434 1433 1432 1432 1431 1431 1431
1469 1468 1468 1468 1468 1467 1467 1467 1466 1466 1466 1466 1466 1465 1465 1464 1464 1464 1463 1463 1462 1462 1461 1461 1460 1460 1459 1459 1458 1459 1459 1459 1458 1456 1455 1453 1452 1452 1453 1453 1452 1451 1451 1451 1451 1451 1450 1450 1449 1449 1449 1449 1448 1447 1447 1446 1446 1445 1445 1444 1444 1443 1442 1442 1441 1441 1440 1439 1439 1438 1437 1437 1436 1436 1435 1434 1433 1433 1432 1431 1431 1430 1430 1429 1428 1428
1467 1467 1467 1467 1466 1466 1466 1466 1466 1465 1465 1465 1465 1464 1464 1463 1463 1462 1462 1461 1461 1461 1460 1459 1459 1458 1458 1458 1458 1458 1458 1458 1457 1456 1455 1452 1451 1451 1452 1452 1451 1450 1450 1449 1449 1449 1449 1448 1448 1448 1447 1447 1447 1446 1446 1445 1444 1444 1443 1442 1442 1441 1441 1440 1439 1439 1438 1437 1437 1436 1436 1435 1434 1433 1433 1432 1431 1431 1430 1429 1428 1428 1427 1426 1426 1425
1466 1466 1466 1466 1465 1465 1465 1465 1465 1464 1464 1464 1463 1463 1462 1462 1461 1461 1461 1460 1460 1459 1458 1458 1457 1457 1457 1457 1457 1456 1457 1457 1456 1455 1454 1452 1451 1450 1451 1451 1450 1449 1448 1448 1448 1448 1447 1447 1446 1446 1446 1446 1445 1445 1444 1443 1443 1442 1441 1441 1440 1440 1439 1438 1437 1437 1436 1436 1435 1434 1433 1433 1432 1431 1431 1430 1429 1428 1427 1427 1426 1426 1425 1424 1423 1423
1465 1464 1464 1464 1464 1464 1464 1463 1463 1463 1463 1462 1462 1461 1461 1461 1460 1460 1459 1459 1458 1458 1457 1456 1456 1456 1456 1456 1455 1455 1456 1456 1456 1455 1454 1452 1450 1449 1450 1450 1449 1448 1447 1447 1447 1446 1446 1445 1445 1445 1444 1444 1444 1443 1442 1442 1441 1441 1440 1439 1438 1438 1437 1436 1436 1435 1434 1434 1433 1432 1431 1431 1430 1429 1428 1427 1427 1426 1425 1425 1424 1423 1422 1422 1421 1421
1463 1463 1463 1463 1462 1462 1462 1462 1462 1461 1461 1461 1460 1460 1459 1459 1458 1458 1458 1458 1457 1457 1456 1456 1455 1455 1455 1454 1454 1454 1455 1455 1455 1454 1453 1452 1450 1448 1449 1449 1449 1447 1446 1445 1445 1445 1444 1443 1443 1443 1443 1442 1442 1441 1441 1440 1439 1439 1438 1437 1436 1436 1435 1435 1434 1433 1432 1431 1431 1430 1429 1428 1427 1427 1426 1425 1424 1424 1423 1422 1422 1421 1420 1420 1419 1418
1462 1462 1462 1461 1461 1461 1461 1461 1461 1461 1460 1460 1460 1459 1459 1458 1457 1457 1457 1457 1457 1456 1456 1455 1454 1454 1453 1453 1453 1453 1453 1454 1454 1453 1453 1451 1449 1448 1448 1448 1448 1446 1445 1444 1443 1443 1442 1441 1441 1441 1441 1441 1440 1440 1439 1438 1438 1437 1436 1436 1435 1434 1433 1433 1432 1431 1430 1429 1429 1428 1427 1426 1425 1424 1424 1423 1422 1421 1421 1420 1420 1419 1418 1417 1416 1415
1461 1461 1461 1461 1460 1460 1460 1460 1459 1459 1459 1459 1459 1459 1458 1457 1457 1456 1456 1456 1456 1456 1455 1454 1454 1453 1452 1452 1452 1452 1452 1452 1452 1452 1451 1451 1449 1447 1447 1447 1446 1445 1444 1442 1441 1441 1441 1440 1440 1439 1439 1438 1438 1437 1437 1436 1436 1435 1435 1434 1433 1432 1431 1431 1430 1429 1428 1427 1426 1426 1425 1424 1423 1422 1421 1421 1420 1419 1419 1418 1417 1416 1416 1415 1414 1412
1460 1460 1460 1459 1459 1459 1459 1459 1458 1458 1458 1458 1458 1457 1457 1457 1456 1456 1456 1456 1456 1455 1454 1454 1453 1453 1452 1451 1451 1451 1451 1451 1451 1451 1450 1449 1448 1446 1446 1446 1445 1445 1443 1441 1439 1438 1438 1438 1438 1437 1436 1436 1436 1436 1435 1435 1434 1433 1433 1432 1431 1430 1429 1428 1427 1426 1426 1425 1424 1423 1422 1421 1421 1420 1419 1419 1418 1417 1416 1416 1415 1414 1413 1412 1411 1410
1459 1459 1458 1458 1458 1458 1458 1457 1457 1457 1457 1457 1457 1457 1456 1456 1456 1456 1455 1455 1455 1454 1454 1453 1453 1452 1452 1451 1450 1449 1449 1450 1451 1451 1450 1449 1447 1446 1446 1445 1445 1444 1443 1441 1438 1436 1434 1435 1435 1435 1435 1434 1434 1433 1433 1432 1432 1431 1431 1430 1429 1428 1427 1426 1425 1424 1424 1423 1422 1421 1420 1419 1419 1418 1417 1416 1416 1415 1414 1413 1412 1411 1410 1409 1408 1407
1458 1458 1457 1457 1457 1457 1456 1456 1456 1456 1456 1456 1456 1456 1456 1456 1455 1455 1455 1455 1454 1453 1453 1452 1452 1451 1451 1451 1450 1448 1447 1449 1450 1450 1449 1448 1447 1446 1445 1444 1444 1443 1443 1442 1440 1436 1433 1431 1431 1433 1432 1432 1431 1431 1431 1430 1430 1429 1428 1427 1426 1426 1425 1424 1423 1422 1421 1421 1420 1419 1418 1417 1416 1416 1415 1414 1413 1412 1412 1411 1410 1409 1408 1407 1406 1405
1457 1457 1456 1456 1456 1456 1456 1456 1456 1456 1456 1456 1456 1456 1455 1455 1455 1454 1454 1454 1453 1453 1452 1451 1451 1451 1450 1450 1449 1448 1447 1448 1449 1449 1448 1447 1446 1445 1444 1443 1443 1442 1442 1441 1440 1438 1435 1431 1429 1429 1429 1429 1428 1428 1428 1427 1427 1426 1426 1425 1424 1423 1423 1422 1421 1420 1419 1418 1417 1416 1416 1415 1414 1413 1413 1412 1411 1410 1410 1409 1408 1407 1406 1405 1404 1403
1456 1456 1456 1455 1455 1455 1455 1455 1455 1455 1455 1455 1455 1455 1454 1454 1454 1453 1453 1453 1452 1452 1451 1451 1450 1450 1449 1449 1448 1447 1446 1447 1447 1448 1447 1446 1445 1443 1443 1442 1441 1441 1440 1440 1439 1438 1436 1432 1429 1427 1426 1426 1426 1426 1425 1425 1425 1424 1423 1422 1421 1421 1420 1419 1418 1417 1416 1416 1415 1414 1413 1413 1412 1411 1411 1410 1409 1408 1407 1406 1406 1405 1404 1403 1402 1401
1455 1455 1455 1455 1454 1454 1454 1454 1454 1454 1454 1454 1454 1453 1453 1453 1453 1452 1452 1451 1451 1451 1450 1450 1449 1449 1448 1447 1446 1446 1445 1446 1446 1446 1446 1445 1443 1442 1441 1441 1440 1439 1438 1437 1437 1436 1434 1432 1430 1427 1425 1423 1423 1423 1423 1423 1422 1422 1421 1420 1419 1418 1417 1417 1416 1415 1414 1413 1412 1411 1411 1410 1409 1409 1408 1407 1406 1406 1405 1404 1403 1403 1402 1402 1401 1400
1454 1454 1454 1454 1454 1454 1454 1454 1453 1453 1453 1453 1453 1452 1452 1452 1451 1451 1451 1450 1450 1450 1449 1449 1448 1448 1447 1446 1445 1445 1444 1445 1445 1445 1444 1443 1442 1441 1440 1439 1439 1438 1437 1436 1435 1434 1432 1431 1429 1428 1425 1422 1421 1421 1421 1421 1421 1420 1419 1418 1417 1416 1415 1415 1414 1412 1411 1411 1410 1409 1408 1407 1407 1406 1405 1405 1404 1403 1402 1402 1401 1401 1401 1400 1400 1399
1453 1453 1453 1453 1453 1453 1453 1453 1453 1452 1452 1452 1452 1451 1451 1451 1450 1450 1450 1449 1449 1448 1448 1447 1447 1447 1446 1446 1445 1444 1443 1444 1444 1444 1443 1442 1441 1441 1439 1438 1438 1437 1436 1435 1434 1433 1431 1429 1428 1427 1425 1423 1420 1419 1419 1419 1419 1418 1417 1416 1416 1415 1414 1413 1412 1411 1409 1408 1407 1406 1406 1405 1404 1403 1403 1402 1401 1401 1400 1400 1399 1399 1398 1398 1397 1397
1453 1453 1453 1452 1452 1452 1452 1452 1452 1451 1451 1451 1451 1450 1450 1450 1449 1449 1448 1448 1448 1447 1447 1446 1446 1446 1445 1445 1444 1443 1443 1443 1443 1442 1442 1441 1441 1439 1438 1437 1436 1436 1436 1434 1433 1432 1431 1429 1426 1425 1424 1423 1421 1418 1417 1416 1416 1416 1415 1415 1414 1413 1412 1411 1410 1409 1408 1406 1406 1405 1404 1403 1402 1401 1401 1400 1399 1399 1398 1398 1397 1396 1396 1395 1395 1394
1452 1452 1452 1452 1451 1451 1451 1451 1451 1451 1450 1450 1450 1449 1449 1449 1448 1448 1447 1447 1446 1446 1446 1445 1445 1444 1444 1444 1443 1443 1442 1442 1441 1441 1441 1440 1439 1438 1437 1436 1435 1435 1434 1433 1432 1431 1430 1428 1426 1424 1422 1421 1420 1418 1417 1416 1414 1413 1413 1412 1412 1411 1410 1409 1408 1407 1406 1405 1404 1403 1402 1401 1400 1399 1398 1398 1397 1396 1395 1395 1394 1394 1393 1392 1391 1391
1451 1451 1451 1451 1451 1451 1450 1450 1450 1450 1449 1449 1448 1448 1448 1447 1447 1446 1446 1446 1445 1445 1444 1444 1443 1443 1443 1442 1442 1442 1441 1441 1441 1440 1440 1439 1438 1437 1436 1435 1434 1433 1433 1432 1431 1430 1429 1428 1426 1424 1422 1420 1418 1416 1416 1415 1413 1412 1411 1410 1409 1409 1408 1408 1407 1406 1405 1404 1402 1401 1400 1399 1398 1397 1396 1395 1394 1393 1392 1392 1391 1391 1390 1389 1388 1388
1451 1451 1451 1450 1450 1450 1449 1449 1449 1449 1448 1448 1447 1447 1447 1446 1446 1446 1445 1445 1444 1444 1443 1443 1442 1442 1441 1441 1441 1441 1440 1440 1440 1439 1438 1438 1437 1436 1435 1434 1433 1432 1431 1431 1430 1429 1428 1426 1425 1423 1422 1420 1418 1416 1414 1413 1412 1411 1410 1408 1407 1406 1406 1406 1405 1404 1403 1402 1401 1399 1398 1397 1396 1395 1394 1393 1392 1391 1391 1390 1389 1389 1388 1388 1386 1385
1450 1450 1450 1449 1449 1449 1449 1448 1448 1448 1447 1447 1446 1446 1446 1445 1445 1444 1444 1444 1443 1443 1442 1442 1441 1441 1440 1440 1440 1440 1439 1439 1438 1438 1437 1437 1436 1435 1434 1433 1432 1431 1430 1429 1428 1427 1426 1425 1424 1422 1421 1419 1417 1415 1413 1411 1411 1411 1410 1408 1406 1404 1403 1403 1403 1402 1401 1400 1399 1398 1397 1395 1394 1393 1392 1391 1390 1390 1389 1388 1387 1386 1386 1386 1385 1384
1449 1449 1449 1449 1448 1448 1448 1447 1447 1447 1446 1446 1446 1445 1445 1444 1444 1443 1443 1442 1442 1441 1441 1441 1440 1439 1439 1439 1439 1439 1438 1438 1437 1437 1436 1436 1435 1434 1433 1432 1431 1430 1429 1428 1426 1425 1425 1424 1422 1421 1419 1418 1417 1415 1412 1410 1409 1409 1409 1407 1405 1403 1401 1400 1401 1401 1400 1398 1397 1396 1395 1394 1392 1391 1390 1389 1388 1387 1386 1386 1385 1385 1384 1383 1383 1382
1449 1448 1448 1448 1448 1447 1447 1446 1446 1446 1446 1445 1445 1444 1444 1443 1443 1442 1442 1441 1441 1441 1440 1439 1439 1438 1437 1437 1437 1437 1437 1436 1436 1436 1435 1434 1433 1432 1431 1431 1430 1429 1428 1426 1425 1424 1422 1422 1421 1419 1418 1417 1416 1414 1411 1409 1407 1407 1406 1406 1405 1403 1400 1398 1398 1398 1398 1396 1396 1394 1393 1392 1391 1389 1388 1386 1385 1384 1384 1383 1383 1383 1382 1381 1380 1379
1448 1448 1447 1447 1447 1446 1446 1446 1445 1445 1445 1444 1444 1443 1443 1443 1442 1441 1441 1441 1440 1439 1439 1438 1437 1436 1436 1435 1435 1435 1435 1435 1434 1434 1433 1433 1432 1431 1430 1429 1428 1427 1426 1426 1424 1422 1421 1420 1419 1418 1417 1416 1415 1412 1410 1408 1406 1405 1404 1404 1403 1402 1400 1397 1396 1395 1395 1394 1393 1392 1391 1390 1389 1387 1385 1384 1383 1382 1381 1381 1380 1379 1379 1378 1378 1377
1447 1447 1447 1446 1446 1446 1445 1445 1444 1444 1444 1443 1443 1442 1442 1442 1441 1441 1440 1439 1439 1438 1438 1437 1436 1435 1434 1434 1433 1433 1432 1432 1432 1432 1431 1431 1431 1430 1429 1428 1427 1426 1425 1424 1423 1422 1420 1419 1417 1416 1415 1414 1413 1411 1408 1406 1404 1403 1402 1401 1401 1400 1398 1396 1395 1394 1393 1391 1390 1390 1389 1388 1387 1385 1383 1381 1381 1380 1379 1379 1378 1377 1376 1376 1375 1374
1446 1446 1446 1446 1445 1445 1444 1444 1443 1443 1443 1442 1442 1442 1441 1441 1441 1440 1439 1438 1438 1437 1436 1436 1435 1434 1433 1432 1432 1431 1431 1430 1430 1430 1429 1429 1428 1428 1427 1426 1426 1424 1423 1422 1421 1420 1419 1417 1416 1414 1413 1412 1410 1408 1406 1405 1403 1401 1400 1399 1398 1397 1396 1394 1393 1392 1391 1390 1388 1387 1386 1386 1385 1384 1382 1380 1379 1378 1377 1376 1376 1375 1374 1373 1373 1372
1446 1445 1445 1445 1444 1444 1443 1443 1443 1442 1442 1441 1441 1441 1441 1440 1439 1439 1438 1437 1437 1436 1436 1435 1434 1433 1432 1431 1431 1430 1429 1428 1428 1427 1427 1427 1426 1426 1425 1424 1423 1422 1421 1420 1419 1418 1417 1416 1415 1413 1412 1411 1408 1405 1403 1403 1402 1401 1399 1397 1396 1395 1393 1392 1391 1390 1390 1388 1387 1386 1385 1384 1383 1382 1380 1379 1377 1376 1375 1374 1374 1373 1373 1372 1371 1370
1445 1445 1444 1444 1444 1443 1443 1442 1442 1441 1441 1441 1440 1440 1440 1439 1439 1438 1437 1436 1436 1435 1435 1434 1433 1432 1431 1431 1430 1429 1428 1427 1426 1426 1425 1424 1424 1423 1422 1421 1421 1420 1419 1418 1417 1416 1414 1413 1412 1411 1411 1409 1406 1403 1401 1400 1400 1399 1397 1396 1395 1393 1391 1390 1389 1388 1387 1386 1385 1384 1384 1383 1382 1380 1378 1377 1375 1374 1373 1372 1371 1371 1371 1370 1369 1368
1444 1444 1444 1443 1443 1442 1442 1441 1441 1441 1440 1440 1440 1439 1439 1438 1438 1437 1436 1436 1435 1434 1433 1432 1432 1431 1430 1429 1429 1428 1427 1426 1425 1424 1423 1423 1422 1421 1420 1419 1418 1417 1416 1415 1414 1413 1411 1410 1409 1409 1408 1407 1405 1402 1399 1398 1397 1396 1396 1394 1393 1391 1390 1387 1386 1386 1386 1385 1384 1383 1383 1382 1381 1380 1378 1376 1373 1371 1370 1369 1369 1368 1368 1367 1366 1366
1443 1443 1443 1442 1442 1441 1441 1441 1440 1440 1439 1439 1438 1438 1437 1437 1437 1436 1435 1435 1434 1433 1432 1431 1431 1430 1429 1428 1427 1426 1426 1425 1424 1422 1422 1421 1421 1420 1418 1417 1416 1416 1414 1413 1411 1410 1409 1407 1406 1405 1405 1404 1403 1401 1399 1396 1395 1394 1393 1392 1391 1390 1388 1386 1385 1384 1384 1383 1382 1382 1381 1380 1379 1378 1377 1375 1372 1369 1367 1366 1366 1365 1365 1365 1364 1363
1443 1442 1442 1442 1441 1441 1440 1440 1439 1439 1438 1438 1437 1437 1436 1436 1435 1435 1434 1433 1432 1431 1431 1430 1429 1428 1427 1426 1426 1425 1424 1423 1422 1421 1420 1420 1419 1418 1417 1416 1415 1414 1413 1411 1410 1408 1407 1405 1403 1401 1401 1401 1401 1401 1399 1396 1394 1392 1391 1390 1389 1389 1387 1386 1384 1383 1383 1382 1381 1380 1379 1378 1377 1376 1375 1373 1371 1368 1365 1364 1363 1362 1362 1362 1361 1360